TimeCST,TemperatureF,Dew PointF,Humidity,Sea Level PressureIn,VisibilityMPH,Wind Direction,Wind SpeedMPH,Gust SpeedMPH,PrecipitationIn,Events,Conditions,WindDirDegrees,DateUTC
12:54 AM,42.1,32.0,67,30.14,10.0,NNW,13.8,-,N/A,,Overcast,340,2013-12-15 06:54:00
1:17 AM,41.0,30.2,65,30.14,10.0,NNW,13.8,19.6,N/A,,Overcast,340,2013-12-15 07:17:00
1:37 AM,41.0,30.2,65,30.14,10.0,NNW,10.4,-,N/A,,Overcast,340,2013-12-15 07:37:00
1:54 AM,41.0,32.0,70,30.15,10.0,NNW,10.4,-,N/A,,Overcast,330,2013-12-15 07:54:00
2:54 AM,41.0,33.1,73,30.17,10.0,NW,9.2,-,N/A,,Overcast,320,2013-12-15 08:54:00
3:54 AM,39.9,32.0,73,30.18,10.0,NW,11.5,20.7,N/A,,Overcast,320,2013-12-15 09:54:00
4:54 AM,39.0,30.9,73,30.19,10.0,NW,12.7,19.6,N/A,,Overcast,320,2013-12-15 10:54:00
5:54 AM,37.9,30.0,73,30.22,10.0,North,16.1,20.7,N/A,,Overcast,360,2013-12-15 11:54:00
6:54 AM,37.9,30.0,73,30.23,10.0,North,15.0,-,N/A,,Overcast,350,2013-12-15 12:54:00
7:54 AM,37.0,30.0,76,30.26,10.0,North,9.2,-,N/A,,Overcast,360,2013-12-15 13:54:00
8:54 AM,37.9,30.9,76,30.30,6.0,NNW,6.9,-,N/A,,Haze,340,2013-12-15 14:54:00
9:18 AM,37.4,30.2,75,30.30,6.0,NNW,10.4,-,N/A,,Haze,340,2013-12-15 15:18:00
9:54 AM,37.0,30.0,76,30.31,6.0,NNW,9.2,-,N/A,,Haze,330,2013-12-15 15:54:00
10:54 AM,37.0,30.0,76,30.30,5.0,NW,6.9,-,N/A,,Haze,310,2013-12-15 16:54:00
11:26 AM,37.4,30.2,75,30.28,6.0,North,8.1,-,N/A,,Haze,350,2013-12-15 17:26:00
11:54 AM,39.0,30.9,73,30.28,6.0,NNW,9.2,-,N/A,,Haze,330,2013-12-15 17:54:00
12:54 PM,39.0,30.9,73,30.27,5.0,NNW,5.8,-,N/A,,Haze,330,2013-12-15 18:54:00
1:54 PM,39.0,30.9,73,30.27,6.0,North,6.9,-,N/A,,Haze,350,2013-12-15 19:54:00
2:54 PM,39.9,30.9,70,30.27,6.0,NNW,8.1,-,N/A,,Haze,340,2013-12-15 20:54:00
3:54 PM,39.0,30.9,73,30.28,6.0,North,5.8,-,N/A,,Haze,10,2013-12-15 21:54:00
4:10 PM,39.2,30.2,70,30.28,6.0,North,4.6,-,N/A,,Haze,10,2013-12-15 22:10:00
4:54 PM,37.9,30.0,73,30.29,6.0,NW,4.6,-,N/A,,Haze,310,2013-12-15 22:54:00
5:01 PM,37.4,30.2,75,30.28,6.0,Calm,Calm,-,N/A,,Haze,0,2013-12-15 23:01:00
5:43 PM,35.6,30.2,81,30.28,6.0,Calm,Calm,-,N/A,,Haze,0,2013-12-15 23:43:00
5:54 PM,35.1,30.0,82,30.28,6.0,Calm,Calm,-,N/A,,Haze,0,2013-12-15 23:54:00
6:54 PM,33.1,28.9,85,30.29,6.0,Calm,Calm,-,N/A,,Clear,0,2013-12-16 00:54:00
7:54 PM,30.9,28.0,89,30.30,6.0,Calm,Calm,-,N/A,,Clear,0,2013-12-16 01:54:00
8:54 PM,30.0,27.0,88,30.32,7.0,Calm,Calm,-,N/A,,Clear,0,2013-12-16 02:54:00
9:54 PM,28.9,26.1,89,30.31,7.0,Calm,Calm,-,N/A,,Clear,0,2013-12-16 03:54:00
10:54 PM,27.0,25.0,92,30.31,6.0,Calm,Calm,-,N/A,,Clear,0,2013-12-16 04:54:00
11:54 PM,27.0,25.0,92,30.30,5.0,Calm,Calm,-,N/A,,Clear,0,2013-12-16 05:54:00